Preview of NWS' New Version of Forecast
This preview is not operational and should not be used for support decisions.

Regional Weather Roundup (RWR)

Issued by National Weather Service (NWS)

                            
000
ASUS43 KDTX 231510
RWRMI 
MICHIGAN HOURLY REGIONAL WEATHER ROUNDUP
NATIONAL WEATHER SERVICE DETROIT/PONTIAC MI
1100 AM EDT THU MAY 23 2019

NOTE: "FAIR" INDICATES FEW OR NO CLOUDS BELOW 12,000 FEET WITH NO
SIGNIFICANT WEATHER AND/OR OBSTRUCTION TO VISIBILITY.

MIZ047>049-052>055-059>063-066>070-074>076-081>083-231600-
SOUTHEAST LOWER MICHIGAN
  
CITY           SKY/WX    TMP DP  RH WIND       PRES   REMARKS
ADRIAN         CLOUDY    70  62  76 W16G28    29.95S                  
ALMA           FAIR      71  53  53 W17G25    29.89R                  
ANN ARBOR      CLOUDY    69  64  84 W15G23    29.92S                  
BAD AXE        PTSUNNY   71  64  78 W15G23    29.82R                  
CARO           PTSUNNY   71  63  76 W17G25    29.84S                  
DETROIT CITY   CLOUDY    70  63  78 SW17G24   29.88F                  
DETROIT        CLOUDY    71  62  73 SW21G29   29.90F                  
FLINT          PTSUNNY   71  61  70 W18G26    29.88R                  
GROSSE ILE     PTSUNNY   71  63  75 W15G24    29.91F                  
HILLSDALE      CLOUDY    67  62  85 SW13G20   29.96R                  
HOWELL         CLOUDY    70  63  78 W14G21    29.90S                  

CITY           SKY/WX    TMP DP  RH WIND       PRES   REMARKS
JACKSON        CLOUDY    69  65  86 SW14G26   29.93S                  
LAMBERTVILLE   FAIR      73  64  74 W15G24    29.94F                  
LANSING        PTSUNNY   70  59  68 W18G28    29.91R                  
LAPEER         CLOUDY    71  64  79 W17       29.87S                  
MASON          PTSUNNY   71  62  74 W18G25    29.92R                  
MONROE         PTSUNNY   73  68  86 SW22      29.92F                  
MT. CLEMENS    PTSUNNY   72  71  99 SW16G22   29.87S                  
PONTIAC        CLOUDY    69  64  84 SW18G24   29.88S                  
PORT HOPE        N/A     71  64  78 SW14G30   29.78F                  
PORT HURON     CLOUDY    72  63  73 SW7G17    29.87S                  
TRI CITIES     FAIR      72  61  68 W23G33    29.84S                  
MIDLAND        FAIR      73  56  56 W14G25    29.83R                  
TROY           CLOUDY    70  62  76 SW12G20   29.91S                  
SAGINAW HB     FAIR      72  63  73 SW20G25   29.84S                  
$$
MIZ043>046-050>051-056>058-064>065-071>073-077>080-231600-
SOUTHWEST LOWER MICHIGAN
  
CITY           SKY/WX    TMP DP  RH WIND       PRES   REMARKS
BATTLE CREEK   PTSUNNY   70  58  65 W17G26    29.95R                  
BENTON HARBOR  FAIR      67  54  63 W16       30.01R                  
BIG RAPIDS     FAIR      68  47  46 W23G32    29.87S                  
COLDWATER      CLOUDY    68  66  92 SW14G20   29.97R                  
FREMONT        FAIR      66  46  48 W13G28    29.91R                  
HOLLAND        FAIR      65  53  65 W20G28    29.97R                  
GRAND RAPIDS   FAIR      68  54  60 W18G35    29.93R                  
IONIA          PTSUNNY   69  50  50 W23G30    29.91S                  
KALAMAZOO      FAIR      70  55  59 W14G29    29.98R                  
LUDINGTON      FAIR      59  48  67 SW14G20   29.90R                  
MARSHALL       PTSUNNY   72  61  68 W17G25    29.94R                  
MOUNT PLEASANT FAIR      71  55  56 W16G24    29.85R                  
MUSKEGON       FAIR      64  50  60 W15G26    29.94R                  
SOUTH HAVEN    FAIR      65  51  60 W12G21    29.99R                  
$$
MIZ016>042-231600-
NORTHERN LOWER MICHIGAN
  
CITY           SKY/WX    TMP DP  RH WIND       PRES   REMARKS
ALPENA         FAIR      71  57  61 W14G25    29.75S                  
BEAVER ISLAND  FAIR      53  47  79 SW12      29.79R                  
BELLAIRE       FAIR      65  47  52 W10G21    29.82R                  
CADILLAC       CLOUDY    65  49  56 W10G23    29.84R                  
CHARLEVOIX     FAIR      61  50  68 SW18G25   29.83R                  
FRANKFORT      FAIR      60  46  59 W13G18    29.86R                  
GAYLORD        FAIR      63  47  55 W18G29    29.80S                  
GRAYLING       PTSUNNY   66  48  51 W15G29    29.80S                  
HARBOR SPRINGS FAIR      56  51  84 W7        29.81R                  
HOUGHTON LAKE  FAIR      67  52  58 W15G24    29.83R                  
MANISTEE       FAIR      63  49  60 W16       29.88R                  
OSCODA         PTSUNNY   73  62  68 W14G24    29.76F                  
PELLSTON       FAIR      63  49  60 W12G22    29.78S                  
ROGERS CITY    FAIR      69  50  50 W12G24    29.76S                  
TRAVERSE CITY  FAIR      67  48  50 W16G25    29.82R                  
$$
MIZ007>008-015-231600-
EASTERN UPPER MICHIGAN
  
CITY           SKY/WX    TMP DP  RH WIND       PRES   REMARKS
KINROSS        CLOUDY    56  53  90 W8        29.74F                  
MACKINAC ISLAN PTSUNNY   49  49 100 SW8G18    29.77S                  
NEWBERRY       FAIR      60  53  78 W13       29.74S                  
S. S. MARIE    CLOUDY    54  51  90 CALM      29.73F FOG              
MUNISING         N/A     59  43  55 N10       29.74S                  
$$
MIZ004>006-011>014-085-231600-
CENTRAL UPPER MICHIGAN
  
CITY           SKY/WX    TMP DP  RH WIND       PRES   REMARKS
MANISTIQUE     FAIR      59  52  77 SW6       29.76R                  
ESCANABA       PTSUNNY   62  49  62 W15G23    29.79R                  
MENOMINEE      PTSUNNY   60  50  69 W8G17     29.84R                  
SAWYER-GWINN   CLOUDY    59  48  67 W14G20    29.76R                  
$$
MIZ001>003-009>011-084-231600-
WESTERN UPPER MICHIGAN
  
CITY           SKY/WX    TMP DP  RH WIND       PRES   REMARKS
IRON MOUNTAIN  CLOUDY    57  46  66 W13G22    29.81R                  
HOUGHTON       CLOUDY    53  50  89 W13       29.77R FOG              
COPPER HARBOR    N/A     46  43  89 N12       29.77R                  
IRONWOOD       LGT RAIN  52  51  97 W10       29.83R FOG              
$$

ABBREVIATIONS USED IN REMARKS
   TC - TEMPERATURE IN CELSIUS
  WCI - WIND CHILL INDEX
   HX - HEAT INDEX
  VSB - VISIBILITY